Location: ?????????
(44.2517°N, 135.2292°E)
Time: 03:30:58
(UTC+00:00)

Okean 1-7 - Pass Details

Date: 19 May 2025
Orbit: 568 x 594 km, 82.5° (Epoch: 14 June)

Event Time Altitude Azimuth Distance (km) Brightness Sun altitude
Exits shadow 18:21:46 15° 232° (SW) 1,639 4.6 -10.4°
Maximum altitude 18:24:37 29° 286° (WNW) 1,102 4.1 -10.0°
Drops below altitude 10° 18:28:18 10° 347° (NNW) 1,914 6.0 -9.5°
Sets 18:30:44 0° 359° (N) 2,814 7.0 -9.2°
